Time,TemperatureF,DewpointF,PressureIn,WindDirection,WindDirectionDegrees,WindSpeedMPH,WindSpeedGustMPH,Humidity,HourlyPrecipIn,Conditions,Clouds,dailyrainin,SoftwareType,DateUTC
2013-08-09 00:00:00,74.8,73.6,30.12,South,180,0.0,0.0,96,0.00,,,0.00,meteobridge,2013-08-09 04:00:00,
2013-08-09 00:10:00,74.7,73.4,30.12,South,180,0.0,0.0,96,0.00,,,0.00,meteobridge,2013-08-09 04:10:00,
2013-08-09 00:21:00,74.8,73.6,30.12,South,180,0.0,0.0,96,0.00,,,0.00,meteobridge,2013-08-09 04:21:00,
2013-08-09 00:31:00,74.7,73.4,30.13,South,180,0.0,0.0,96,0.00,,,0.00,meteobridge,2013-08-09 04:31:00,
2013-08-09 00:41:00,74.5,73.2,30.13,South,180,0.0,0.0,96,0.00,,,0.00,meteobridge,2013-08-09 04:41:00,
2013-08-09 00:51:00,74.3,73.0,30.13,South,180,0.0,0.0,96,0.00,,,0.00,meteobridge,2013-08-09 04:51:00,
2013-08-09 01:02:00,74.1,72.9,30.13,South,180,0.0,0.0,96,0.00,,,0.00,meteobridge,2013-08-09 05:02:00,
2013-08-09 01:13:00,73.9,72.7,30.13,South,180,0.0,0.0,96,0.00,,,0.00,meteobridge,2013-08-09 05:13:00,
2013-08-09 01:23:00,73.6,72.3,30.13,South,180,0.0,0.0,96,0.00,,,0.00,meteobridge,2013-08-09 05:23:00,
2013-08-09 01:33:00,73.6,72.3,30.13,South,180,0.0,0.0,96,0.00,,,0.00,meteobridge,2013-08-09 05:33:00,
2013-08-09 01:43:00,73.4,72.1,30.13,South,180,0.0,0.0,96,0.00,,,0.00,meteobridge,2013-08-09 05:43:00,
2013-08-09 01:54:00,73.4,72.1,30.13,South,180,0.0,0.0,96,0.00,,,0.00,meteobridge,2013-08-09 05:54:00,
2013-08-09 02:04:00,73.4,72.1,30.13,South,180,0.0,0.0,96,0.00,,,0.00,meteobridge,2013-08-09 06:04:00,
2013-08-09 02:15:00,73.4,72.1,30.13,South,180,0.0,0.0,96,0.00,,,0.00,meteobridge,2013-08-09 06:15:00,
2013-08-09 02:25:00,73.2,71.8,30.14,South,180,0.0,-999.0,95,0.00,,,0.00,meteobridge,2013-08-09 06:25:00,
2013-08-09 02:36:00,72.9,71.4,30.13,South,180,0.0,0.0,95,0.00,,,0.00,meteobridge,2013-08-09 06:36:00,
2013-08-09 02:46:00,73.0,71.6,30.13,South,180,0.0,0.0,95,0.00,,,0.00,meteobridge,2013-08-09 06:46:00,
2013-08-09 02:57:00,73.0,71.6,30.14,South,180,0.0,0.0,95,0.00,,,0.00,meteobridge,2013-08-09 06:57:00,
2013-08-09 03:07:00,73.0,71.6,30.14,South,180,0.0,0.0,95,0.00,,,0.00,meteobridge,2013-08-09 07:07:00,
2013-08-09 03:17:00,73.0,71.6,30.14,South,180,0.0,0.0,95,0.00,,,0.00,meteobridge,2013-08-09 07:17:00,
2013-08-09 03:27:00,73.2,71.8,30.14,South,180,0.0,0.0,95,0.00,,,0.00,meteobridge,2013-08-09 07:27:00,
2013-08-09 03:37:00,73.4,72.1,30.14,South,180,0.0,0.0,96,0.00,,,0.00,meteobridge,2013-08-09 07:37:00,
2013-08-09 03:48:00,73.4,72.5,30.14,South,180,0.0,0.0,97,0.00,,,0.00,meteobridge,2013-08-09 07:48:00,
2013-08-09 03:58:00,73.6,72.7,30.14,South,180,0.0,0.0,97,0.00,,,0.00,meteobridge,2013-08-09 07:58:00,
2013-08-09 04:08:00,73.4,72.5,30.14,South,180,0.0,0.0,97,0.00,,,0.00,meteobridge,2013-08-09 08:08:00,
2013-08-09 04:21:00,73.6,72.7,30.14,South,180,0.0,-999.0,97,0.00,,,0.00,meteobridge,2013-08-09 08:21:00,
2013-08-09 04:31:00,73.6,72.7,30.14,South,180,0.0,0.0,97,0.00,,,0.00,meteobridge,2013-08-09 08:31:00,
2013-08-09 04:41:00,73.4,72.5,30.14,South,180,0.0,0.0,97,0.00,,,0.00,meteobridge,2013-08-09 08:41:00,
2013-08-09 04:52:00,73.4,72.5,30.14,South,180,0.0,0.0,97,0.00,,,0.00,meteobridge,2013-08-09 08:52:00,
2013-08-09 05:02:00,73.4,72.5,30.14,South,180,0.0,0.0,97,0.00,,,0.00,meteobridge,2013-08-09 09:02:00,
2013-08-09 05:12:00,73.4,72.5,30.14,South,180,0.0,0.0,97,0.00,,,0.00,meteobridge,2013-08-09 09:12:00,
2013-08-09 05:22:00,73.2,72.0,30.14,South,180,0.0,0.0,96,0.00,,,0.00,meteobridge,2013-08-09 09:22:00,
2013-08-09 05:33:00,73.0,71.8,30.14,South,180,0.0,0.0,96,0.00,,,0.00,meteobridge,2013-08-09 09:33:00,
2013-08-09 05:44:00,72.9,71.6,30.14,South,180,0.0,0.0,96,0.00,,,0.00,meteobridge,2013-08-09 09:44:00,
2013-08-09 05:54:00,72.9,71.6,30.14,South,180,0.0,0.0,96,0.00,,,0.00,meteobridge,2013-08-09 09:54:00,
2013-08-09 06:05:00,73.0,71.8,30.15,South,180,0.0,0.0,96,0.00,,,0.00,meteobridge,2013-08-09 10:05:00,
2013-08-09 06:15:00,72.9,71.6,30.15,South,180,0.0,0.0,96,0.00,,,0.00,meteobridge,2013-08-09 10:15:00,
2013-08-09 06:25:00,72.9,72.0,30.15,South,180,0.0,0.0,97,0.00,,,0.00,meteobridge,2013-08-09 10:25:00,
2013-08-09 06:35:00,73.2,72.3,30.15,South,180,0.0,0.0,97,0.00,,,0.00,meteobridge,2013-08-09 10:35:00,
2013-08-09 06:46:00,73.0,72.1,30.16,South,180,0.0,-999.0,97,0.00,,,0.00,meteobridge,2013-08-09 10:46:00,
2013-08-09 06:56:00,73.2,72.3,30.16,West,270,0.0,0.0,97,0.00,,,0.00,meteobridge,2013-08-09 10:56:00,
2013-08-09 07:07:00,73.0,72.1,30.16,West,270,0.0,0.0,97,0.00,,,0.00,meteobridge,2013-08-09 11:07:00,
2013-08-09 07:17:00,73.0,72.1,30.16,West,270,0.0,0.0,97,0.00,,,0.00,meteobridge,2013-08-09 11:17:00,
2013-08-09 07:27:00,73.0,72.1,30.16,West,270,0.0,0.0,97,0.00,,,0.00,meteobridge,2013-08-09 11:27:00,
2013-08-09 07:37:00,73.4,72.5,30.16,West,270,0.0,0.0,97,0.00,,,0.00,meteobridge,2013-08-09 11:37:00,
2013-08-09 07:48:00,73.8,73.2,30.17,West,270,0.0,0.0,98,0.00,,,0.00,meteobridge,2013-08-09 11:48:00,
2013-08-09 07:59:00,74.1,73.6,30.17,North,0,0.0,0.0,98,0.00,,,0.00,meteobridge,2013-08-09 11:59:00,
2013-08-09 08:10:00,74.3,73.8,30.17,North,0,0.0,0.0,98,0.00,,,0.00,meteobridge,2013-08-09 12:10:00,
2013-08-09 08:20:00,74.8,74.3,30.18,North,0,0.0,0.0,98,0.00,,,0.00,meteobridge,2013-08-09 12:20:00,
2013-08-09 08:30:00,74.8,74.3,30.18,North,0,0.0,0.0,98,0.00,,,0.00,meteobridge,2013-08-09 12:30:00,
2013-08-09 08:40:00,32.0,-18.4,30.18,North,0,0.0,-999.0,10,0.00,,,0.00,meteobridge,2013-08-09 12:40:00,
2013-08-09 08:51:00,76.3,75.0,30.18,North,0,0.0,0.0,96,0.00,,,0.00,meteobridge,2013-08-09 12:51:00,
2013-08-09 09:02:00,78.6,77.0,30.18,North,0,0.0,0.0,95,0.00,,,0.00,meteobridge,2013-08-09 13:02:00,
2013-08-09 09:13:00,78.8,75.9,30.18,North,0,0.0,0.0,91,0.00,,,0.00,meteobridge,2013-08-09 13:13:00,
2013-08-09 09:23:00,78.8,74.3,30.19,North,0,0.0,0.0,86,0.00,,,0.00,meteobridge,2013-08-09 13:23:00,
2013-08-09 09:34:00,80.8,75.2,30.19,North,0,0.0,0.0,83,0.00,,,0.00,meteobridge,2013-08-09 13:34:00,
2013-08-09 09:44:00,80.2,74.3,30.19,North,0,0.0,-999.0,82,0.00,,,0.00,meteobridge,2013-08-09 13:44:00,
2013-08-09 09:55:00,80.8,73.2,30.19,North,0,0.0,0.0,78,0.00,,,0.00,meteobridge,2013-08-09 13:55:00,
2013-08-09 10:05:00,81.7,74.1,30.19,North,0,0.0,0.0,78,0.00,,,0.00,meteobridge,2013-08-09 14:05:00,
2013-08-09 10:15:00,82.2,74.7,30.19,South,180,0.0,0.0,78,0.00,,,0.00,meteobridge,2013-08-09 14:15:00,
2013-08-09 10:27:00,84.6,75.4,30.19,South,180,0.0,0.0,74,0.00,,,0.00,meteobridge,2013-08-09 14:27:00,
2013-08-09 10:37:00,86.0,75.6,30.19,South,180,0.0,0.0,71,0.00,,,0.00,meteobridge,2013-08-09 14:37:00,
2013-08-09 10:47:00,83.8,73.4,30.19,North,0,0.0,0.0,71,0.00,,,0.00,meteobridge,2013-08-09 14:47:00,
2013-08-09 10:57:00,85.1,74.1,30.19,NE,45,0.0,0.0,70,0.00,,,0.00,meteobridge,2013-08-09 14:57:00,
2013-08-09 11:09:00,84.6,73.2,30.19,North,0,0.0,-999.0,69,0.00,,,0.00,meteobridge,2013-08-09 15:09:00,
2013-08-09 11:21:00,85.5,73.8,30.19,North,0,0.0,0.0,68,0.00,,,0.00,meteobridge,2013-08-09 15:21:00,
2013-08-09 11:32:00,87.4,75.6,30.20,East,90,0.0,0.0,68,0.00,,,0.00,meteobridge,2013-08-09 15:32:00,
2013-08-09 11:43:00,84.4,73.6,30.20,East,90,0.0,0.0,70,0.00,,,0.00,meteobridge,2013-08-09 15:43:00,
2013-08-09 11:53:00,84.7,73.4,30.20,North,0,0.0,0.0,69,0.00,,,0.00,meteobridge,2013-08-09 15:53:00,
2013-08-09 12:03:00,83.7,73.6,30.19,North,0,0.0,0.0,72,0.00,,,0.00,meteobridge,2013-08-09 16:03:00,
2013-08-09 12:13:00,85.3,73.6,30.19,NE,45,0.0,0.0,68,0.00,,,0.00,meteobridge,2013-08-09 16:13:00,
2013-08-09 12:23:00,87.4,74.3,30.19,SE,135,1.6,1.6,65,0.00,,,0.00,meteobridge,2013-08-09 16:23:00,
2013-08-09 12:33:00,87.1,73.9,30.19,North,0,0.7,0.7,65,0.00,,,0.00,meteobridge,2013-08-09 16:33:00,
2013-08-09 12:46:00,88.7,74.5,30.19,North,0,0.0,-999.0,63,0.00,,,0.00,meteobridge,2013-08-09 16:46:00,
2013-08-09 12:56:00,90.1,75.4,30.19,NW,315,3.1,3.1,62,0.00,,,0.00,meteobridge,2013-08-09 16:56:00,
2013-08-09 13:06:00,87.4,73.8,30.19,South,180,3.1,3.1,64,0.00,,,0.00,meteobridge,2013-08-09 17:06:00,
2013-08-09 13:16:00,88.3,73.6,30.18,North,0,2.2,-999.0,62,0.00,,,0.00,meteobridge,2013-08-09 17:16:00,
2013-08-09 13:26:00,87.8,73.6,30.18,East,90,0.7,3.8,63,0.00,,,0.00,meteobridge,2013-08-09 17:26:00,
2013-08-09 13:37:00,88.3,73.6,30.18,SE,135,2.2,2.2,62,0.00,,,0.00,meteobridge,2013-08-09 17:37:00,
2013-08-09 13:47:00,87.1,73.9,30.17,North,0,1.6,1.6,65,0.00,,,0.00,meteobridge,2013-08-09 17:47:00,
2013-08-09 13:57:00,87.4,73.8,30.18,South,180,0.0,0.0,64,0.00,,,0.00,meteobridge,2013-08-09 17:57:00,
2013-08-09 14:08:00,87.4,73.8,30.17,North,0,2.2,2.2,64,0.00,,,0.00,meteobridge,2013-08-09 18:08:00,
2013-08-09 14:28:00,86.7,73.6,30.17,South,180,1.6,1.6,65,0.00,,,0.00,meteobridge,2013-08-09 18:28:00,
2013-08-09 14:38:00,87.8,73.6,30.16,North,0,0.0,2.2,63,0.00,,,0.00,meteobridge,2013-08-09 18:38:00,
2013-08-09 14:49:00,89.6,74.3,30.16,North,0,0.7,2.2,61,0.00,,,0.00,meteobridge,2013-08-09 18:49:00,
2013-08-09 14:59:00,89.2,73.0,30.16,North,0,4.5,4.5,59,0.00,,,0.00,meteobridge,2013-08-09 18:59:00,
2013-08-09 15:09:00,89.1,73.4,30.16,North,0,0.7,2.2,60,0.00,,,0.00,meteobridge,2013-08-09 19:09:00,
2013-08-09 15:19:00,89.2,74.5,30.15,North,0,2.2,2.2,62,0.00,,,0.00,meteobridge,2013-08-09 19:19:00,
2013-08-09 15:30:00,88.2,72.5,30.15,North,0,3.8,3.8,60,0.00,,,0.00,meteobridge,2013-08-09 19:30:00,
2013-08-09 15:40:00,88.5,73.4,30.15,North,0,1.6,1.6,61,0.00,,,0.00,meteobridge,2013-08-09 19:40:00,
2013-08-09 15:50:00,88.2,73.4,30.15,North,0,3.1,3.1,62,0.00,,,0.00,meteobridge,2013-08-09 19:50:00,
2013-08-09 16:01:00,89.1,73.4,30.15,North,0,3.1,3.1,60,0.00,,,0.00,meteobridge,2013-08-09 20:01:00,
2013-08-09 16:11:00,89.4,74.1,30.14,South,180,1.6,1.6,61,0.00,,,0.00,meteobridge,2013-08-09 20:11:00,
2013-08-09 16:21:00,89.8,73.6,30.14,North,0,3.8,3.8,59,0.00,,,0.00,meteobridge,2013-08-09 20:21:00,
2013-08-09 16:32:00,87.4,73.2,30.14,East,90,1.6,1.6,63,0.00,,,0.00,meteobridge,2013-08-09 20:32:00,
2013-08-09 16:42:00,87.3,73.6,30.14,West,270,0.7,2.2,64,0.00,,,0.00,meteobridge,2013-08-09 20:42:00,
2013-08-09 16:52:00,88.2,73.4,30.14,South,180,1.6,1.6,62,0.00,,,0.00,meteobridge,2013-08-09 20:52:00,
2013-08-09 17:02:00,87.3,73.0,30.14,South,180,1.6,1.6,63,0.00,,,0.00,meteobridge,2013-08-09 21:02:00,
2013-08-09 17:13:00,87.3,72.1,30.13,North,0,1.6,3.8,61,0.00,,,0.00,meteobridge,2013-08-09 21:13:00,
2013-08-09 17:24:00,87.4,71.8,30.13,North,0,1.6,1.6,60,0.00,,,0.00,meteobridge,2013-08-09 21:24:00,
2013-08-09 17:34:00,88.2,72.0,30.13,North,0,2.2,2.2,59,0.00,,,0.00,meteobridge,2013-08-09 21:34:00,
2013-08-09 17:45:00,88.2,73.0,30.13,North,0,1.6,1.6,61,0.00,,,0.00,meteobridge,2013-08-09 21:45:00,
2013-08-09 17:56:00,87.4,71.8,30.13,North,0,3.1,3.1,60,0.00,,,0.00,meteobridge,2013-08-09 21:56:00,
2013-08-09 18:06:00,87.3,71.6,30.13,North,0,1.6,-999.0,60,0.00,,,0.00,meteobridge,2013-08-09 22:06:00,
2013-08-09 18:18:00,87.4,72.3,30.13,South,180,0.0,0.0,61,0.00,,,0.00,meteobridge,2013-08-09 22:18:00,
2013-08-09 18:29:00,87.3,71.6,30.12,North,0,0.7,0.7,60,0.00,,,0.00,meteobridge,2013-08-09 22:29:00,
2013-08-09 18:40:00,86.7,72.7,30.12,North,0,0.0,0.0,63,0.00,,,0.00,meteobridge,2013-08-09 22:40:00,
2013-08-09 18:51:00,86.7,72.7,30.13,North,0,0.0,0.0,63,0.00,,,0.00,meteobridge,2013-08-09 22:51:00,
2013-08-09 19:01:00,85.8,73.2,30.13,North,0,0.0,0.0,66,0.00,,,0.00,meteobridge,2013-08-09 23:01:00,
2013-08-09 19:12:00,84.7,72.5,30.14,North,0,0.0,0.0,67,0.00,,,0.00,meteobridge,2013-08-09 23:12:00,
2013-08-09 19:22:00,84.0,72.7,30.14,North,0,0.0,0.0,69,0.00,,,0.00,meteobridge,2013-08-09 23:22:00,
2013-08-09 19:33:00,83.3,72.5,30.14,North,0,0.0,0.0,70,0.00,,,0.00,meteobridge,2013-08-09 23:33:00,
2013-08-09 19:43:00,82.8,72.0,30.14,North,0,0.0,0.0,70,0.00,,,0.00,meteobridge,2013-08-09 23:43:00,
2013-08-09 19:53:00,82.0,73.4,30.15,North,0,0.0,0.0,75,0.00,,,0.00,meteobridge,2013-08-09 23:53:00,
2013-08-09 20:05:00,81.9,73.6,30.14,North,0,0.0,-999.0,76,0.00,,,0.00,meteobridge,2013-08-10 00:05:00,
2013-08-09 20:16:00,81.7,73.8,30.14,West,270,0.0,0.0,77,0.00,,,0.00,meteobridge,2013-08-10 00:16:00,
2013-08-09 20:26:00,81.0,73.4,30.15,West,270,0.0,0.0,78,0.00,,,0.00,meteobridge,2013-08-10 00:26:00,
2013-08-09 20:36:00,80.4,74.5,30.15,West,270,0.0,0.0,82,0.00,,,0.00,meteobridge,2013-08-10 00:36:00,
2013-08-09 20:47:00,79.9,73.9,30.16,West,270,0.0,0.0,82,0.00,,,0.00,meteobridge,2013-08-10 00:47:00,
2013-08-09 20:57:00,79.3,73.8,30.16,West,270,0.0,0.0,83,0.00,,,0.00,meteobridge,2013-08-10 00:57:00,
2013-08-09 21:07:00,78.8,73.6,30.16,West,270,0.0,0.0,84,0.00,,,0.00,meteobridge,2013-08-10 01:07:00,
2013-08-09 21:18:00,78.6,73.8,30.17,West,270,0.0,0.0,85,0.00,,,0.00,meteobridge,2013-08-10 01:18:00,
2013-08-09 21:28:00,78.4,73.9,30.17,West,270,0.0,0.0,86,0.00,,,0.00,meteobridge,2013-08-10 01:28:00,
2013-08-09 21:38:00,78.3,73.8,30.18,West,270,0.0,-999.0,86,0.00,,,0.00,meteobridge,2013-08-10 01:38:00,
2013-08-09 21:49:00,78.3,73.8,30.19,West,270,0.0,0.0,86,0.00,,,0.00,meteobridge,2013-08-10 01:49:00,
2013-08-09 21:59:00,78.1,73.6,30.19,West,270,0.0,0.0,86,0.00,,,0.00,meteobridge,2013-08-10 01:59:00,
2013-08-09 22:09:00,77.9,73.4,30.19,West,270,0.0,0.0,86,0.00,,,0.00,meteobridge,2013-08-10 02:09:00,
2013-08-09 22:19:00,77.5,73.0,30.19,West,270,0.0,0.0,86,0.00,,,0.00,meteobridge,2013-08-10 02:19:00,
2013-08-09 22:29:00,77.5,73.0,30.19,West,270,0.0,0.0,86,0.00,,,0.00,meteobridge,2013-08-10 02:29:00,
2013-08-09 22:40:00,77.4,72.9,30.20,West,270,0.0,0.0,86,0.00,,,0.00,meteobridge,2013-08-10 02:40:00,
2013-08-09 22:50:00,77.4,72.9,30.20,West,270,0.0,0.0,86,0.00,,,0.00,meteobridge,2013-08-10 02:50:00,
2013-08-09 23:00:00,77.4,72.9,30.21,West,270,0.0,0.0,86,0.00,,,0.00,meteobridge,2013-08-10 03:00:00,
2013-08-09 23:11:00,77.2,73.0,30.21,West,270,0.0,0.0,87,0.00,,,0.00,meteobridge,2013-08-10 03:11:00,
2013-08-09 23:21:00,77.2,73.0,30.21,South,180,0.0,0.0,87,0.00,,,0.00,meteobridge,2013-08-10 03:21:00,
2013-08-09 23:32:00,76.8,73.0,30.21,South,180,0.0,0.0,88,0.00,,,0.00,meteobridge,2013-08-10 03:32:00,
2013-08-09 23:42:00,76.6,72.9,30.20,South,180,0.0,0.0,88,0.00,,,0.00,meteobridge,2013-08-10 03:42:00,
2013-08-09 23:52:00,76.3,72.5,30.20,South,180,0.0,0.0,88,0.00,,,0.00,meteobridge,2013-08-10 03:52:00,